Flag for Germany Weather past 2 weeks in Kamp-Lintfort, North Rhine-Westphalia, Germany

Now
60 °F

Passing clouds.


Feels Like: 60 °F
Forecast: 41 / 62 °F
Wind: 5 mph from Northeast

Location: Duesseldorf

Current Time: Apr 19, 2015 at 8:00:03 PM

Latest Report: Apr 19, 2015 at 7:00 PM


Visibility: 19 mi

Pressure: 30.16 "Hg

Humidity: 38%

Dew point: 35 °F

Location of Kamp-LintfortLocation

Historic Weather in Kamp-Lintfort — Graph

°F

Kamp-Lintfort temperature yesterday

Maximum temperature yesterday: 57 °F (at 6:00 PM)
Minimum temperature yesterday: 35 °F (at 7:00 AM)
Average temperature yesterday: 47 °F

Past Weeks' High & Low Weather Summary

 TemperatureHumidityPressure
High74 °F (Apr 15, 4:00 PM)99% (Apr 7, 6:00 AM)30.65 "Hg (Apr 7, 6:00 AM)
Low29 °F (Apr 7, 7:00 AM)31% (Apr 10, 6:00 PM)29.93 "Hg (Apr 15, 8:00 PM)
Average50 °F67%30.27 "Hg
* Reported Apr 4 7:00 PM — Apr 19 7:00 PM, Kamp-Lintfort, Weather by CustomWeather, © 2015

Note: Actual official high and low records may vary slightly from our data, if they occured in-between our weather recording intervals... More about our weather records

Advertising

Kamp-Lintfort weather history for previous 24 hours

 ConditionsComfort  
Time TempWeatherWind HumidityBarometerVisibility
7:00 PM
Sun, Apr 19
60 °FPassing clouds.5 mph38%30.16 "Hg19 mi
6:00 PM61 °FScattered clouds.3 mph39%30.15 "Hg19 mi
4:00 PM60 °FOvercast.5 mph43%30.15 "Hg19 mi
3:00 PM59 °FOvercast.3 mph41%30.17 "Hg19 mi
2:00 PM57 °FOvercast.2 mph42%30.18 "Hg19 mi
1:00 PM55 °FOvercast.1 mph44%30.18 "Hg19 mi
12:00 PM51 °FOvercast.2 mph60%30.19 "Hg14 mi
10:00 AM45 °FOvercast.2 mph77%30.20 "Hg11 mi
9:00 AM42 °FOvercast.2 mph83%30.21 "Hg11 mi
8:00 AM40 °FOvercast.1 mph90%30.20 "Hg11 mi
7:00 AM36 °FPartly sunny.2 mph97%30.21 "Hg11 mi
6:00 AM34 °FFog.1 mph95%30.20 "Hg31 mi
4:00 AM37 °FClear.2 mph89%30.24 "Hg31 mi
3:00 AM39 °FClear.2 mph83%30.25 "Hg31 mi
2:00 AM38 °FClear.1 mph82%30.27 "Hg31 mi
1:00 AM39 °FPassing clouds.2 mph78%30.28 "Hg31 mi
12:00 AM40 °FClear.3 mph80%30.29 "Hg31 mi
10:00 PM
Sat, Apr 18
45 °FPassing clouds.2 mph61%30.27 "Hg31 mi
9:00 PM52 °FPassing clouds.2 mph41%30.27 "Hg31 mi
8:00 PM53 °FSunny.3 mph41%30.27 "Hg31 mi
Weather by CustomWeather, © 2015

See weather overviewHow to use our weather pages